When you browse on this site, cookies collect data to enhance your experience and personalize the content and advertising you see.
Visit our Privacy Policy to learn more. By continuing to use the site, you agree to this use of cookies and data.
  • Em Portugal
  • Lista de países
  • Para 7 dias
  • Temperatura da água
  • Mapa do tempo
  • Widgets de tempo
  • user-avatar
    Iniciar Sessão

    Previsão horária em Telšiai

    Hoje, 8 Abril, Quarta-feira

    Tempo Temperatura Precipitação Vento Pressão Humidade
    00:00 +4°C° 0 mm 3 m/s 759 mmHg 83%
    01:00 +4°C° 0 mm 2 m/s 760 mmHg 88%
    02:00 +4°C° 0 mm 2 m/s 760 mmHg 89%
    03:00 +3°C° 0 mm 2 m/s 760 mmHg 91%
    04:00 +3°C° 0 mm 2 m/s 760 mmHg 92%
    05:00 +4°C° 0 mm 2 m/s 760 mmHg 88%
    06:00 +5°C° 0 mm 2 m/s 760 mmHg 83%
    07:00 +6°C° 0 mm 2 m/s 761 mmHg 79%
    08:00 +8°C° 0 mm 2 m/s 761 mmHg 71%
    09:00 +9°C° 0 mm 2 m/s 760 mmHg 64%
    10:00 +11°C° 0 mm 3 m/s 760 mmHg 56%
    11:00 +12°C° 0 mm 3 m/s 760 mmHg 54%
    12:00 +12°C° 0 mm 3 m/s 760 mmHg 51%
    13:00 +13°C° 0 mm 3 m/s 759 mmHg 48%
    14:00 +12°C° 0 mm 3 m/s 759 mmHg 49%
    15:00 +12°C° 0 mm 4 m/s 758 mmHg 50%
    16:00 +12°C° 0 mm 4 m/s 757 mmHg 51%
    17:00 +10°C° 0 mm 3 m/s 757 mmHg 57%
    18:00 +8°C° 0 mm 3 m/s 756 mmHg 64%
    19:00 +7°C° 0 mm 2 m/s 755 mmHg 70%
    20:00 +6°C° 0 mm 2 m/s 755 mmHg 69%
    21:00 +5°C° 0 mm 3 m/s 754 mmHg 69%
    22:00 +5°C° 0 mm 3 m/s 754 mmHg 68%
    23:00 +5°C° 0 mm 3 m/s 753 mmHg 70%

    Amanhã, 9 Abril, Quinta-feira

    Tempo Temperatura Precipitação Vento Pressão Humidade
    00:00 +5°C° 0 mm 4 m/s 752 mmHg 72%
    01:00 +5°C° 0 mm 4 m/s 752 mmHg 73%
    02:00 +6°C° 0 mm 4 m/s 751 mmHg 74%
    03:00 +7°C° 0 mm 3 m/s 750 mmHg 74%
    04:00 +7°C° 0 mm 3 m/s 750 mmHg 75%
    05:00 +7°C° 0.7 mm 3 m/s 749 mmHg 81%
    06:00 +5°C° 0.7 mm 3 m/s 748 mmHg 87%
    07:00 +5°C° 0.7 mm 4 m/s 748 mmHg 92%
    08:00 +6°C° 0.2 mm 4 m/s 748 mmHg 90%
    09:00 +7°C° 0.2 mm 4 m/s 748 mmHg 87%
    10:00 +8°C° 0.2 mm 5 m/s 748 mmHg 84%
    11:00 +8°C° 0 mm 5 m/s 748 mmHg 81%
    12:00 +9°C° 0 mm 6 m/s 748 mmHg 77%
    13:00 +9°C° 0 mm 6 m/s 748 mmHg 73%
    14:00 +8°C° 0.1 mm 6 m/s 748 mmHg 71%
    15:00 +8°C° 0.1 mm 5 m/s 749 mmHg 70%
    16:00 +7°C° 0.1 mm 5 m/s 749 mmHg 68%
    17:00 +6°C° 0 mm 5 m/s 749 mmHg 69%
    18:00 +4°C° 0 mm 4 m/s 750 mmHg 69%
    19:00 +3°C° 0 mm 4 m/s 750 mmHg 69%
    20:00 +2°C° 0 mm 3 m/s 751 mmHg 70%
    21:00 +1°C° 0 mm 3 m/s 751 mmHg 71%
    22:00 +1°C° 0 mm 3 m/s 752 mmHg 73%
    23:00 0°C° 0 mm 3 m/s 752 mmHg 74%

    Depois de amanhã, 10 Abril, Sexta-feira

    Tempo Temperatura Precipitação Vento Pressão Humidade
    00:00 0°C° 0 mm 3 m/s 752 mmHg 75%
    01:00 0°C° 0 mm 3 m/s 752 mmHg 76%
    02:00 0°C° 0 mm 3 m/s 752 mmHg 80%
    03:00 0°C° 0 mm 3 m/s 752 mmHg 84%
    04:00 0°C° 0 mm 3 m/s 753 mmHg 87%
    05:00 +1°C° 0 mm 3 m/s 753 mmHg 80%
    06:00 +2°C° 0 mm 3 m/s 753 mmHg 73%
    07:00 +3°C° 0 mm 3 m/s 754 mmHg 66%
    08:00 +5°C° 0 mm 4 m/s 754 mmHg 59%
    09:00 +6°C° 0 mm 4 m/s 755 mmHg 51%
    10:00 +7°C° 0 mm 4 m/s 755 mmHg 44%
    11:00 +7°C° 0 mm 5 m/s 755 mmHg 44%
    12:00 +8°C° 0 mm 5 m/s 755 mmHg 43%
    13:00 +8°C° 0 mm 5 m/s 755 mmHg 42%
    14:00 +7°C° 0 mm 5 m/s 755 mmHg 43%
    15:00 +7°C° 0 mm 5 m/s 755 mmHg 45%
    16:00 +6°C° 0 mm 5 m/s 755 mmHg 46%
    17:00 +5°C° 0 mm 5 m/s 755 mmHg 54%
    18:00 +3°C° 0 mm 4 m/s 756 mmHg 61%
    19:00 +2°C° 0 mm 3 m/s 756 mmHg 69%
    20:00 +1°C° 0 mm 3 m/s 756 mmHg 73%
    21:00 +1°C° 0 mm 2 m/s 756 mmHg 77%
    22:00 -1°C° 0 mm 2 m/s 756 mmHg 81%
    23:00 +1°C° 0 mm 1 m/s 757 mmHg 79%

    11 Abril, Sábado

    Tempo Temperatura Precipitação Vento Pressão Humidade
    00:00 +1°C° 0 mm 1 m/s 757 mmHg 76%
    01:00 0°C° 0 mm 1 m/s 757 mmHg 74%
    02:00 0°C° 0 mm 1 m/s 757 mmHg 71%
    03:00 0°C° 0 mm 1 m/s 757 mmHg 68%
    04:00 0°C° 0 mm 1 m/s 758 mmHg 66%
    05:00 +2°C° 0 mm 1 m/s 758 mmHg 60%
    06:00 +3°C° 0 mm 1 m/s 758 mmHg 54%
    07:00 +4°C° 0 mm 1 m/s 758 mmHg 48%
    08:00 +6°C° 0 mm 1 m/s 758 mmHg 44%
    09:00 +6°C° 0 mm 2 m/s 758 mmHg 41%
    10:00 +7°C° 0 mm 2 m/s 758 mmHg 38%
    11:00 +8°C° 0 mm 3 m/s 758 mmHg 39%
    12:00 +8°C° 0 mm 3 m/s 758 mmHg 40%
    13:00 +8°C° 0 mm 3 m/s 758 mmHg 41%
    14:00 +8°C° 0 mm 3 m/s 757 mmHg 43%
    15:00 +8°C° 0 mm 3 m/s 757 mmHg 45%
    16:00 +8°C° 0 mm 3 m/s 756 mmHg 47%
    17:00 +5°C° 0 mm 3 m/s 756 mmHg 54%
    18:00 +4°C° 0 mm 3 m/s 755 mmHg 60%
    19:00 +3°C° 0 mm 3 m/s 755 mmHg 66%
    20:00 +3°C° 0 mm 3 m/s 754 mmHg 67%
    21:00 +3°C° 0 mm 4 m/s 754 mmHg 68%
    22:00 +1°C° 0 mm 4 m/s 754 mmHg 68%
    23:00 +2°C° 0 mm 5 m/s 753 mmHg 68%

    12 Abril, Domingo

    Tempo Temperatura Precipitação Vento Pressão Humidade
    00:00 +2°C° 0 mm 5 m/s 752 mmHg 67%
    01:00 +2°C° 0 mm 6 m/s 752 mmHg 66%
    02:00 +2°C° 0 mm 6 m/s 751 mmHg 68%
    03:00 +3°C° 0 mm 6 m/s 750 mmHg 70%
    04:00 +3°C° 0 mm 5 m/s 750 mmHg 71%
    05:00 +3°C° 0.1 mm 6 m/s 749 mmHg 73%
    06:00 +3°C° 0.1 mm 6 m/s 749 mmHg 75%
    07:00 +4°C° 0.1 mm 6 m/s 748 mmHg 77%
    08:00 +4°C° 0.2 mm 6 m/s 748 mmHg 76%
    09:00 +4°C° 0.2 mm 6 m/s 747 mmHg 75%
    10:00 +5°C° 0.2 mm 7 m/s 747 mmHg 74%
    11:00 +5°C° 0 mm 6 m/s 747 mmHg 73%
    12:00 +7°C° 0 mm 6 m/s 747 mmHg 72%
    13:00 +7°C° 0 mm 6 m/s 746 mmHg 71%
    14:00 +7°C° 0 mm 6 m/s 746 mmHg 71%
    15:00 +7°C° 0 mm 6 m/s 745 mmHg 72%
    16:00 +8°C° 0 mm 6 m/s 745 mmHg 72%
    17:00 +7°C° 0 mm 5 m/s 745 mmHg 74%
    18:00 +7°C° 0 mm 5 m/s 744 mmHg 76%
    19:00 +6°C° 0 mm 4 m/s 744 mmHg 78%
    20:00 +6°C° 0.3 mm 4 m/s 743 mmHg 81%
    21:00 +6°C° 0.3 mm 4 m/s 743 mmHg 84%
    22:00 +6°C° 0.3 mm 4 m/s 743 mmHg 87%
    23:00 +6°C° 0 mm 4 m/s 742 mmHg 88%

    13 Abril, Segunda-feira

    Tempo Temperatura Precipitação Vento Pressão Humidade
    00:00 +5°C° 0 mm 4 m/s 742 mmHg 89%
    01:00 +5°C° 0 mm 3 m/s 742 mmHg 90%
    02:00 +5°C° 0 mm 3 m/s 741 mmHg 91%
    03:00 +5°C° 0 mm 4 m/s 740 mmHg 91%
    04:00 +5°C° 0 mm 4 m/s 740 mmHg 92%
    05:00 +6°C° 0 mm 4 m/s 739 mmHg 87%
    06:00 +7°C° 0 mm 5 m/s 739 mmHg 82%
    07:00 +8°C° 0 mm 5 m/s 738 mmHg 78%
    08:00 +9°C° 0 mm 5 m/s 738 mmHg 75%
    09:00 +10°C° 0 mm 6 m/s 737 mmHg 71%
    10:00 +11°C° 0 mm 6 m/s 736 mmHg 68%
    11:00 +11°C° 0.3 mm 6 m/s 736 mmHg 70%
    12:00 +11°C° 0.3 mm 6 m/s 736 mmHg 71%
    13:00 +11°C° 0.3 mm 6 m/s 735 mmHg 73%
    14:00 +10°C° 0.2 mm 5 m/s 735 mmHg 77%
    15:00 +9°C° 0.2 mm 5 m/s 735 mmHg 82%
    16:00 +8°C° 0.2 mm 4 m/s 735 mmHg 86%
    17:00 +6°C° 1.3 mm 5 m/s 735 mmHg 89%
    18:00 +2°C° 1.3 mm 7 m/s 735 mmHg 92%
    19:00 -1°C° 1.3 mm 8 m/s 735 mmHg 94%
    20:00 -1°C° 0.9 mm 8 m/s 736 mmHg 95%
    21:00 -2°C° 0.9 mm 8 m/s 737 mmHg 95%
    22:00 -2°C° 0.9 mm 8 m/s 737 mmHg 95%
    23:00 -4°C° 0.2 mm 8 m/s 738 mmHg 91%
    Mostrar mais